DAL759 KATL-KTPA

Flight info

Callsign DAL759
Flight time 1h 3m
Altitude 27000
Route BANNG3 LUCKK HONID MAATY5
Aircraft A321/M-SDE3FGHIRWY/LB1

Departure

Time 2026-05-03 21:25
Airport Hartsfield Jackson Atlanta International Airport (KATL)

Arrival

Time 2026-05-03 22:29
Airport Tampa International Airport (KTPA)
Time Latitude Longitude Altitude Speed Heading
2026-05-03 20:54 33.63883 -84.43868 1007 ft 0 kts 269°
2026-05-03 21:05 33.63883 -84.43862 1006 ft 4 kts 268°
2026-05-03 21:05 33.63885 -84.43830 1006 ft 4 kts 261°
2026-05-03 21:05 33.63891 -84.43799 1006 ft 4 kts 249°
2026-05-03 21:06 33.63896 -84.43784 1006 ft 0 kts 243°
2026-05-03 21:08 33.63891 -84.43785 1006 ft 1 kts 197°
2026-05-03 21:08 33.63863 -84.43787 1006 ft 11 kts 180°
2026-05-03 21:09 33.63771 -84.43786 1006 ft 7 kts 180°
2026-05-03 21:09 33.63751 -84.43787 1006 ft 0 kts 180°
2026-05-03 21:10 33.63722 -84.43787 1006 ft 8 kts 181°
2026-05-03 21:10 33.63673 -84.43762 1006 ft 7 kts 129°
2026-05-03 21:10 33.63665 -84.43711 1006 ft 7 kts 91°
2026-05-03 21:11 33.63664 -84.43635 1006 ft 11 kts 90°
2026-05-03 21:11 33.63664 -84.43498 1006 ft 22 kts 90°
2026-05-03 21:11 33.63664 -84.43315 1006 ft 21 kts 90°
2026-05-03 21:11 33.63663 -84.43125 1006 ft 25 kts 90°
2026-05-03 21:12 33.63663 -84.42925 1006 ft 23 kts 90°
2026-05-03 21:12 33.63659 -84.42740 1006 ft 21 kts 94°
2026-05-03 21:12 33.63655 -84.42571 1007 ft 19 kts 90°
2026-05-03 21:12 33.63655 -84.42418 1007 ft 18 kts 90°
2026-05-03 21:13 33.63655 -84.42277 1007 ft 16 kts 90°
2026-05-03 21:13 33.63640 -84.42172 1007 ft 11 kts 117°
2026-05-03 21:13 33.63606 -84.42098 1007 ft 9 kts 119°
2026-05-03 21:13 33.63584 -84.42031 1007 ft 9 kts 98°
2026-05-03 21:14 33.63582 -84.41917 1006 ft 18 kts 91°
2026-05-03 21:14 33.63582 -84.41735 1006 ft 23 kts 87°
2026-05-03 21:14 33.63582 -84.41565 1006 ft 19 kts 90°
2026-05-03 21:14 33.63581 -84.41414 1005 ft 16 kts 90°
2026-05-03 21:15 33.63581 -84.41285 1005 ft 15 kts 90°
2026-05-03 21:15 33.63581 -84.41203 1006 ft 6 kts 90°
2026-05-03 21:15 33.63581 -84.41155 1006 ft 5 kts 90°
2026-05-03 21:15 33.63581 -84.41136 1006 ft 0 kts 90°
2026-05-03 21:18 33.63581 -84.41133 1006 ft 1 kts 90°
2026-05-03 21:19 33.63581 -84.41089 1006 ft 10 kts 90°
2026-05-03 21:19 33.63581 -84.41054 1006 ft 0 kts 90°
2026-05-03 21:21 33.63581 -84.41048 1006 ft 2 kts 90°
2026-05-03 21:21 33.63580 -84.41010 1006 ft 10 kts 90°
2026-05-03 21:21 33.63579 -84.40938 1006 ft 7 kts 95°
2026-05-03 21:21 33.63572 -84.40923 1006 ft 0 kts 131°
2026-05-03 21:23 33.63559 -84.40913 1006 ft 7 kts 153°
2026-05-03 21:23 33.63507 -84.40909 1007 ft 7 kts 181°
2026-05-03 21:23 33.63472 -84.40923 1007 ft 4 kts 240°
2026-05-03 21:24 33.63472 -84.40933 1007 ft 0 kts 268°
2026-05-03 21:24 33.63472 -84.40950 1007 ft 9 kts 268°
2026-05-03 21:24 33.63471 -84.41294 1006 ft 75 kts 270°
2026-05-03 21:25 33.63471 -84.42157 1007 ft 130 kts 270°
2026-05-03 21:25 33.63471 -84.43421 1008 ft 171 kts 270°
2026-05-03 21:25 33.63470 -84.44915 1430 ft 180 kts 270°
2026-05-03 21:25 33.63470 -84.46433 2054 ft 184 kts 270°
2026-05-03 21:26 33.63467 -84.47978 2720 ft 186 kts 271°
2026-05-03 21:26 33.63467 -84.49570 2928 ft 203 kts 271°
2026-05-03 21:26 33.63464 -84.51343 3068 ft 224 kts 271°
2026-05-03 21:26 33.63462 -84.53314 3249 ft 247 kts 271°
2026-05-03 21:27 33.63460 -84.55407 3844 ft 253 kts 270°
2026-05-03 21:27 33.63459 -84.57539 4538 ft 258 kts 271°
2026-05-03 21:27 33.63458 -84.59696 5294 ft 260 kts 271°
2026-05-03 21:27 33.63457 -84.61870 6060 ft 261 kts 271°
2026-05-03 21:28 33.63189 -84.64044 6743 ft 269 kts 253°
2026-05-03 21:28 33.62293 -84.66038 7371 ft 277 kts 233°
2026-05-03 21:28 33.60839 -84.67579 8031 ft 284 kts 213°
2026-05-03 21:28 33.59084 -84.68695 8715 ft 288 kts 204°
2026-05-03 21:29 33.57156 -84.69301 9395 ft 294 kts 188°
2026-05-03 21:29 33.55096 -84.69275 10037 ft 301 kts 173°
2026-05-03 21:29 33.53018 -84.68873 10643 ft 303 kts 173°
2026-05-03 21:29 33.50926 -84.68469 11268 ft 306 kts 173°
2026-05-03 21:30 33.48817 -84.68068 11895 ft 308 kts 174°
2026-05-03 21:30 33.46694 -84.67668 12514 ft 310 kts 174°
2026-05-03 21:30 33.44552 -84.67268 13134 ft 313 kts 174°
2026-05-03 21:30 33.42402 -84.66820 13762 ft 316 kts 168°
2026-05-03 21:31 33.40289 -84.65911 14057 ft 333 kts 159°
2026-05-03 21:31 33.38118 -84.64747 14183 ft 351 kts 158°
2026-05-03 21:31 33.35839 -84.63508 14307 ft 368 kts 158°
2026-05-03 21:31 33.33488 -84.62227 14423 ft 385 kts 158°
2026-05-03 21:32 33.31002 -84.60874 14539 ft 400 kts 158°
2026-05-03 21:32 33.28424 -84.59475 14669 ft 414 kts 158°
2026-05-03 21:32 33.25761 -84.58036 14855 ft 424 kts 158°
2026-05-03 21:32 33.23057 -84.56578 15239 ft 428 kts 158°
2026-05-03 21:33 33.20332 -84.55113 15683 ft 431 kts 158°
2026-05-03 21:33 33.17592 -84.53640 16127 ft 433 kts 158°
2026-05-03 21:33 33.14833 -84.52158 16566 ft 436 kts 158°
2026-05-03 21:33 33.12062 -84.50671 16994 ft 438 kts 158°
2026-05-03 21:34 33.09309 -84.49197 17442 ft 441 kts 158°
2026-05-03 21:34 33.06508 -84.47698 17871 ft 443 kts 158°
2026-05-03 21:34 33.03686 -84.46188 18316 ft 445 kts 159°
2026-05-03 21:34 33.00854 -84.44675 18719 ft 447 kts 159°
2026-05-03 21:35 32.97978 -84.43264 19079 ft 446 kts 165°
2026-05-03 21:35 32.94975 -84.42364 19461 ft 445 kts 174°
2026-05-03 21:35 32.91905 -84.42040 19818 ft 443 kts 182°
2026-05-03 21:35 32.88821 -84.41999 20171 ft 445 kts 182°
2026-05-03 21:36 32.85719 -84.41947 20539 ft 447 kts 182°
2026-05-03 21:36 32.82604 -84.41884 20898 ft 449 kts 182°
2026-05-03 21:36 32.79516 -84.41817 21247 ft 451 kts 182°
2026-05-03 21:36 32.76376 -84.41745 21586 ft 453 kts 182°
2026-05-03 21:37 32.73223 -84.41676 21970 ft 454 kts 183°
2026-05-03 21:37 32.70063 -84.41614 22327 ft 455 kts 183°
2026-05-03 21:37 32.66893 -84.41555 22674 ft 457 kts 183°
2026-05-03 21:37 32.63708 -84.41492 22996 ft 459 kts 183°
2026-05-03 21:38 32.60510 -84.41426 23310 ft 461 kts 183°
2026-05-03 21:38 32.57298 -84.41356 23645 ft 463 kts 183°
2026-05-03 21:38 32.54072 -84.41286 23926 ft 464 kts 183°
2026-05-03 21:38 32.50838 -84.41219 24218 ft 466 kts 183°
2026-05-03 21:39 32.47593 -84.41156 24492 ft 467 kts 184°
2026-05-03 21:39 32.44342 -84.41099 24773 ft 468 kts 184°
2026-05-03 21:39 32.41130 -84.41043 25074 ft 467 kts 184°
2026-05-03 21:39 32.37884 -84.40985 25473 ft 465 kts 184°
2026-05-03 21:40 32.34653 -84.40921 25851 ft 464 kts 184°
2026-05-03 21:40 32.31435 -84.40849 26233 ft 462 kts 184°
2026-05-03 21:40 32.28229 -84.40775 26594 ft 460 kts 185°
2026-05-03 21:40 32.25032 -84.40704 26966 ft 459 kts 185°
2026-05-03 21:41 32.21844 -84.40636 27091 ft 457 kts 185°
2026-05-03 21:41 32.19748 -84.40592 27127 ft 453 kts 185°
2026-05-03 21:41 32.16588 -84.40533 27141 ft 458 kts 185°
2026-05-03 21:41 32.13383 -84.40477 27139 ft 463 kts 185°
2026-05-03 21:42 32.10149 -84.40415 27138 ft 466 kts 185°
2026-05-03 21:42 32.05855 -84.40329 27141 ft 467 kts 185°
2026-05-03 21:42 32.02606 -84.40263 27141 ft 467 kts 185°
2026-05-03 21:42 31.99357 -84.40197 27141 ft 467 kts 185°
2026-05-03 21:43 31.97162 -84.40153 27144 ft 467 kts 185°
2026-05-03 21:43 31.93828 -84.40088 27117 ft 466 kts 185°
2026-05-03 21:43 31.90722 -84.40026 27148 ft 465 kts 185°
2026-05-03 21:43 31.87491 -84.39961 27148 ft 464 kts 185°
2026-05-03 21:44 31.84261 -84.39898 27146 ft 464 kts 186°
2026-05-03 21:44 31.81030 -84.39836 27152 ft 464 kts 185°
2026-05-03 21:44 31.77800 -84.39772 27152 ft 464 kts 185°
2026-05-03 21:44 31.74570 -84.39708 27152 ft 464 kts 185°
2026-05-03 21:45 31.71341 -84.39646 27157 ft 464 kts 186°
2026-05-03 21:45 31.68110 -84.39586 27156 ft 464 kts 186°
2026-05-03 21:45 31.64884 -84.39524 27137 ft 464 kts 186°
2026-05-03 21:45 31.61657 -84.39480 27149 ft 463 kts 186°
2026-05-03 21:46 31.58438 -84.39473 27155 ft 462 kts 187°
2026-05-03 21:46 31.55265 -84.39490 27158 ft 462 kts 187°
2026-05-03 21:46 31.52049 -84.39514 27160 ft 462 kts 187°
2026-05-03 21:46 31.48833 -84.39535 27156 ft 462 kts 187°
2026-05-03 21:47 31.45620 -84.39550 27156 ft 462 kts 187°
2026-05-03 21:47 31.42407 -84.39558 27156 ft 462 kts 187°
2026-05-03 21:47 31.39197 -84.39559 27119 ft 462 kts 187°
2026-05-03 21:47 31.35985 -84.39560 27127 ft 461 kts 187°
2026-05-03 21:48 31.32773 -84.39560 27137 ft 461 kts 187°
2026-05-03 21:48 31.29564 -84.39561 27141 ft 461 kts 187°
2026-05-03 21:48 31.26359 -84.39561 27141 ft 461 kts 187°
2026-05-03 21:48 31.23151 -84.39563 27140 ft 461 kts 187°
2026-05-03 21:49 31.19989 -84.39566 27141 ft 461 kts 187°
2026-05-03 21:49 31.16787 -84.39569 27139 ft 460 kts 187°
2026-05-03 21:49 31.13583 -84.39575 27139 ft 460 kts 187°
2026-05-03 21:49 31.10379 -84.39583 27101 ft 461 kts 187°
2026-05-03 21:50 31.07173 -84.39592 27107 ft 461 kts 187°
2026-05-03 21:50 31.03967 -84.39600 27112 ft 461 kts 187°
2026-05-03 21:50 31.00761 -84.39605 27117 ft 461 kts 187°
2026-05-03 21:50 30.97557 -84.39607 27118 ft 461 kts 187°
2026-05-03 21:51 30.94350 -84.39609 27126 ft 461 kts 187°
2026-05-03 21:51 30.91145 -84.39614 27127 ft 461 kts 187°
2026-05-03 21:51 30.87939 -84.39620 27131 ft 461 kts 187°
2026-05-03 21:51 30.84736 -84.39628 27131 ft 460 kts 187°
2026-05-03 21:52 30.81530 -84.39633 27108 ft 461 kts 187°
2026-05-03 21:52 30.78323 -84.39636 27108 ft 461 kts 187°
2026-05-03 21:52 30.75162 -84.39638 27111 ft 461 kts 187°
2026-05-03 21:52 30.71956 -84.39640 27113 ft 461 kts 187°
2026-05-03 21:53 30.68749 -84.39643 27116 ft 461 kts 187°
2026-05-03 21:53 30.65543 -84.39646 27117 ft 461 kts 187°
2026-05-03 21:53 30.62336 -84.39649 27120 ft 461 kts 187°
2026-05-03 21:53 30.59131 -84.39653 27115 ft 461 kts 187°
2026-05-03 21:54 30.55922 -84.39657 27116 ft 461 kts 187°
2026-05-03 21:54 30.52714 -84.39662 27116 ft 461 kts 187°
2026-05-03 21:54 30.49507 -84.39667 27115 ft 461 kts 187°
2026-05-03 21:54 30.46296 -84.39675 27114 ft 461 kts 187°
2026-05-03 21:55 30.43130 -84.39682 27117 ft 461 kts 187°
2026-05-03 21:55 30.39920 -84.39687 27118 ft 462 kts 187°
2026-05-03 21:55 30.36688 -84.39400 27119 ft 471 kts 178°
2026-05-03 21:55 30.33481 -84.38422 27120 ft 483 kts 167°
2026-05-03 21:56 30.30417 -84.36723 27120 ft 495 kts 156°
2026-05-03 21:56 30.27620 -84.34334 27081 ft 506 kts 146°
2026-05-03 21:56 30.24951 -84.31676 27086 ft 506 kts 146°
2026-05-03 21:56 30.22280 -84.29021 27087 ft 507 kts 146°
2026-05-03 21:57 30.19604 -84.26366 27081 ft 507 kts 146°
2026-05-03 21:57 30.16961 -84.23749 27090 ft 507 kts 147°
2026-05-03 21:57 30.14282 -84.21097 27091 ft 508 kts 147°
2026-05-03 21:57 30.11597 -84.18441 27095 ft 508 kts 147°
2026-05-03 21:58 30.08912 -84.15791 27099 ft 508 kts 147°
2026-05-03 21:58 30.06224 -84.13141 27095 ft 508 kts 147°
2026-05-03 21:58 30.03538 -84.10493 27097 ft 508 kts 147°
2026-05-03 21:58 30.00848 -84.07843 27097 ft 508 kts 147°
2026-05-03 21:59 29.98157 -84.05197 27092 ft 508 kts 147°
2026-05-03 21:59 29.95465 -84.02556 27073 ft 508 kts 147°
2026-05-03 21:59 29.92771 -83.99913 27079 ft 509 kts 147°
2026-05-03 21:59 29.90115 -83.97301 27080 ft 509 kts 147°
2026-05-03 22:00 29.87420 -83.94652 27079 ft 509 kts 147°
2026-05-03 22:00 29.84724 -83.92006 27093 ft 509 kts 147°
2026-05-03 22:00 29.81957 -83.89495 27088 ft 502 kts 153°
2026-05-03 22:00 29.78988 -83.87445 27094 ft 496 kts 159°
2026-05-03 22:01 29.75977 -83.85512 27099 ft 496 kts 159°
2026-05-03 22:01 29.72970 -83.83577 27101 ft 496 kts 158°
2026-05-03 22:01 29.69960 -83.81634 27103 ft 496 kts 158°
2026-05-03 22:01 29.66950 -83.79690 27062 ft 496 kts 158°
2026-05-03 22:02 29.63937 -83.77747 27074 ft 497 kts 158°
2026-05-03 22:02 29.60921 -83.75805 27078 ft 497 kts 158°
2026-05-03 22:02 29.57905 -83.73865 27083 ft 497 kts 158°
2026-05-03 22:02 29.54886 -83.71924 27086 ft 497 kts 159°
2026-05-03 22:03 29.51907 -83.70013 27086 ft 497 kts 159°
2026-05-03 22:03 29.48885 -83.68075 27089 ft 497 kts 159°
2026-05-03 22:03 29.45862 -83.66138 27091 ft 498 kts 159°
2026-05-03 22:03 29.42838 -83.64204 27094 ft 498 kts 159°
2026-05-03 22:04 29.39819 -83.62272 27098 ft 497 kts 159°
2026-05-03 22:04 29.36795 -83.60341 27069 ft 497 kts 159°
2026-05-03 22:04 29.33768 -83.58411 27075 ft 497 kts 159°
2026-05-03 22:04 29.30775 -83.56495 27097 ft 488 kts 159°
2026-05-03 22:05 29.27833 -83.54604 27097 ft 483 kts 159°
2026-05-03 22:05 29.24910 -83.52729 27088 ft 481 kts 159°
2026-05-03 22:05 29.22024 -83.50886 27099 ft 483 kts 159°
2026-05-03 22:05 29.19087 -83.49020 27097 ft 484 kts 159°
2026-05-03 22:06 29.16142 -83.47152 27098 ft 484 kts 159°
2026-05-03 22:06 29.13230 -83.45297 27081 ft 471 kts 159°
2026-05-03 22:06 29.10414 -83.43494 26810 ft 459 kts 159°
2026-05-03 22:06 29.07647 -83.41730 26282 ft 452 kts 159°
2026-05-03 22:07 29.04905 -83.39995 25741 ft 448 kts 159°
2026-05-03 22:07 29.02186 -83.38278 25198 ft 445 kts 159°
2026-05-03 22:07 28.99523 -83.36596 24670 ft 442 kts 159°
2026-05-03 22:07 28.96844 -83.34903 24148 ft 438 kts 159°
2026-05-03 22:08 28.94187 -83.33225 23617 ft 435 kts 159°
2026-05-03 22:08 28.91548 -83.31555 23016 ft 432 kts 158°
2026-05-03 22:08 28.88932 -83.29898 22434 ft 428 kts 158°
2026-05-03 22:08 28.86345 -83.28258 21873 ft 424 kts 158°
2026-05-03 22:09 28.83779 -83.26632 21315 ft 420 kts 158°
2026-05-03 22:09 28.81235 -83.25024 20773 ft 416 kts 158°
2026-05-03 22:09 28.78716 -83.23431 20230 ft 412 kts 158°
2026-05-03 22:10 28.73779 -83.20311 19212 ft 405 kts 158°
2026-05-03 22:10 28.71328 -83.18762 18715 ft 401 kts 158°
2026-05-03 22:10 28.68895 -83.17224 18210 ft 398 kts 158°
2026-05-03 22:10 28.66483 -83.15704 17646 ft 395 kts 158°
2026-05-03 22:11 28.64088 -83.14198 17104 ft 392 kts 158°
2026-05-03 22:11 28.61712 -83.12707 16585 ft 389 kts 158°
2026-05-03 22:11 28.59354 -83.11226 16090 ft 386 kts 157°
2026-05-03 22:11 28.57015 -83.09754 15596 ft 383 kts 157°
2026-05-03 22:12 28.54701 -83.08298 15044 ft 376 kts 157°
2026-05-03 22:12 28.52467 -83.06889 14073 ft 370 kts 157°
2026-05-03 22:12 28.50233 -83.05484 13000 ft 365 kts 156°
2026-05-03 22:12 28.48024 -83.04098 11992 ft 359 kts 156°
2026-05-03 22:13 28.45917 -83.02773 11739 ft 332 kts 156°
2026-05-03 22:13 28.43965 -83.01541 11354 ft 313 kts 156°
2026-05-03 22:13 28.42086 -83.00363 11072 ft 306 kts 156°
2026-05-03 22:13 28.40224 -82.99202 11016 ft 305 kts 156°
2026-05-03 22:14 28.38360 -82.98040 11023 ft 306 kts 156°
2026-05-03 22:14 28.36521 -82.96895 11024 ft 305 kts 156°
2026-05-03 22:14 28.34658 -82.95734 11025 ft 305 kts 156°
2026-05-03 22:14 28.32796 -82.94575 11022 ft 305 kts 156°
2026-05-03 22:15 28.30932 -82.93416 11020 ft 306 kts 156°
2026-05-03 22:15 28.29070 -82.92256 11019 ft 305 kts 156°
2026-05-03 22:15 28.27250 -82.90998 11018 ft 309 kts 147°
2026-05-03 22:15 28.25653 -82.89338 11021 ft 313 kts 140°
2026-05-03 22:16 28.24100 -82.87612 11012 ft 313 kts 140°
2026-05-03 22:16 28.22545 -82.85888 11017 ft 313 kts 140°
2026-05-03 22:16 28.21009 -82.84189 11023 ft 313 kts 140°
2026-05-03 22:16 28.19449 -82.82466 10675 ft 314 kts 140°
2026-05-03 22:17 28.17881 -82.80735 10251 ft 315 kts 140°
2026-05-03 22:17 28.16313 -82.79005 9865 ft 314 kts 140°
2026-05-03 22:17 28.14752 -82.77285 9463 ft 312 kts 140°
2026-05-03 22:17 28.13199 -82.75574 9103 ft 310 kts 139°
2026-05-03 22:18 28.11664 -82.73882 8681 ft 306 kts 139°
2026-05-03 22:18 28.10147 -82.72210 8156 ft 303 kts 138°
2026-05-03 22:18 28.08647 -82.70559 7639 ft 299 kts 138°
2026-05-03 22:18 28.07169 -82.68924 7144 ft 295 kts 137°
2026-05-03 22:19 28.05728 -82.67289 6640 ft 292 kts 136°
2026-05-03 22:19 28.04335 -82.65681 6199 ft 289 kts 135°
2026-05-03 22:19 28.02948 -82.64075 6037 ft 283 kts 135°
2026-05-03 22:19 28.01430 -82.62680 5877 ft 281 kts 150°
2026-05-03 22:20 27.99632 -82.61829 5684 ft 280 kts 167°
2026-05-03 22:20 27.97709 -82.61585 5504 ft 278 kts 183°
2026-05-03 22:20 27.95811 -82.61672 5365 ft 267 kts 182°
2026-05-03 22:20 27.93996 -82.61750 5256 ft 256 kts 182°
2026-05-03 22:21 27.92238 -82.61821 5164 ft 249 kts 182°
2026-05-03 22:21 27.90560 -82.61885 5061 ft 235 kts 182°
2026-05-03 22:21 27.88950 -82.61948 4994 ft 229 kts 181°
2026-05-03 22:21 27.87376 -82.62008 4743 ft 225 kts 181°
2026-05-03 22:22 27.85806 -82.62068 4344 ft 226 kts 180°
2026-05-03 22:22 27.84252 -82.62132 3965 ft 226 kts 180°
2026-05-03 22:22 27.82676 -82.62215 3609 ft 226 kts 180°
2026-05-03 22:22 27.81112 -82.62305 3283 ft 224 kts 180°
2026-05-03 22:23 27.79556 -82.62387 3032 ft 221 kts 180°
2026-05-03 22:23 27.78081 -82.62411 2991 ft 203 kts 169°
2026-05-03 22:23 27.76884 -82.61725 2986 ft 191 kts 130°
2026-05-03 22:23 27.76278 -82.60438 2993 ft 185 kts 107°
2026-05-03 22:24 27.76245 -82.59032 2988 ft 181 kts 69°
2026-05-03 22:24 27.77014 -82.57926 2995 ft 182 kts 39°
2026-05-03 22:24 27.78028 -82.57117 2988 ft 180 kts 34°
2026-05-03 22:24 27.79083 -82.56343 2990 ft 182 kts 34°
2026-05-03 22:25 27.80144 -82.55573 2998 ft 179 kts 34°
2026-05-03 22:25 27.81169 -82.54897 2906 ft 168 kts 22°
2026-05-03 22:25 27.82308 -82.54708 2706 ft 166 kts
2026-05-03 22:25 27.83452 -82.54671 2497 ft 163 kts
2026-05-03 22:26 27.84589 -82.54634 2300 ft 163 kts
2026-05-03 22:26 27.85718 -82.54596 2081 ft 162 kts
2026-05-03 22:26 27.86848 -82.54557 1873 ft 162 kts
2026-05-03 22:26 27.87957 -82.54520 1673 ft 159 kts
2026-05-03 22:27 27.89047 -82.54483 1439 ft 154 kts
2026-05-03 22:27 27.90118 -82.54447 1239 ft 154 kts
2026-05-03 22:27 27.91179 -82.54411 1045 ft 152 kts
2026-05-03 22:27 27.92235 -82.54375 846 ft 152 kts
2026-05-03 22:28 27.93286 -82.54339 659 ft 152 kts
2026-05-03 22:28 27.94350 -82.54303 462 ft 155 kts
2026-05-03 22:28 27.95421 -82.54266 252 ft 154 kts
2026-05-03 22:28 27.96477 -82.54235 70 ft 152 kts
2026-05-03 22:29 27.97469 -82.54197 49 ft 120 kts
2026-05-03 22:29 27.98109 -82.54176 48 ft 67 kts
2026-05-03 22:29 27.98441 -82.54164 51 ft 41 kts
2026-05-03 22:29 27.98619 -82.54157 51 ft 15 kts
2026-05-03 22:30 27.98678 -82.54134 51 ft 8 kts 43°
2026-05-03 22:30 27.98690 -82.54078 47 ft 8 kts 98°
2026-05-03 22:30 27.98649 -82.54034 48 ft 9 kts 170°
2026-05-03 22:30 27.98593 -82.54034 48 ft 8 kts 180°
2026-05-03 22:31 27.98506 -82.54036 48 ft 14 kts 182°
2026-05-03 22:31 27.98412 -82.54040 48 ft 12 kts 182°
2026-05-03 22:31 27.98345 -82.54018 48 ft 9 kts 126°
2026-05-03 22:31 27.98321 -82.53970 47 ft 8 kts 142°
2026-05-03 22:32 27.98273 -82.53963 47 ft 6 kts 180°
2026-05-03 22:32 27.98219 -82.53963 47 ft 11 kts 180°
2026-05-03 22:32 27.98147 -82.53965 47 ft 10 kts 180°
2026-05-03 22:32 27.98106 -82.53964 45 ft 2 kts 178°
2026-05-03 22:33 27.98093 -82.53959 47 ft 5 kts 154°
2026-05-03 22:33 27.98081 -82.53923 44 ft 4 kts 97°
2026-05-03 22:33 27.98080 -82.53898 44 ft 2 kts 93°
2026-05-03 22:33 27.98079 -82.53889 44 ft 1 kts 93°
2026-05-03 22:34 27.98079 -82.53887 43 ft 0 kts 93°